| time (UTC) | temp F | wind direction | speed MPH | gust MPH | rain 1hr in | rain 24hr in | rain mn in | humidity % | barometer mb |
| 20260831150638 | 87 | 0.0 | 1.0 | 0.00 | 0.00 | 0.00 | 12 | 1018.0 | |
| 20260831145716 | 88 | 0.0 | 0.0 | 0.00 | 0.00 | 0.00 | 10 | 1018.0 | |
| 20260831144815 | 88 | 0.0 | 1.0 | 0.00 | 0.00 | 0.00 | 1018.1 | ||
| 20260831143914 | 89 | 0.0 | 1.0 | 0.00 | 0.00 | 0.00 | 1018.2 | ||
| 20260831142114 | 89 | 0.0 | 0.0 | 0.00 | 0.00 | 0.00 | 1018.2 | ||
| 20260831141213 | 90 | 0.0 | 2.0 | 0.00 | 0.00 | 0.00 | 1018.2 | ||
| 20260831140313 | 92 | 0.0 | 1.0 | 0.00 | 0.00 | 0.00 | 1018.3 | ||
| 20260831135412 | 93 | 0.0 | 3.0 | 0.00 | 0.00 | 0.00 | 1018.2 | ||
| 20260831134511 | 95 | 0.0 | 2.0 | 0.00 | 0.00 | 0.00 | 1018.3 | ||
| 20260831133610 | 96 | 1.0 | 3.0 | 0.00 | 0.00 | 0.00 | 1018.3 | ||
| 20260831132711 | 96 | 135 | 1.0 | 3.0 | 0.00 | 0.00 | 0.00 | 1018.3 | |
| 20260831131809 | 96 | 0.0 | 2.0 | 0.00 | 0.00 | 0.00 | 1018.3 | ||
| 20260831130908 | 95 | 0.0 | 2.0 | 0.00 | 0.00 | 0.00 | 1018.3 | ||
| 20260831125147 | 96 | 135 | 3.0 | 6.0 | 0.00 | 0.00 | 0.00 | 1018.5 | |
| 20260831124227 | 96 | 0.0 | 0.0 | 0.00 | 0.00 | 0.00 | 1018.5 | ||
| 20260831123346 | 97 | 113 | 1.0 | 3.0 | 0.00 | 0.00 | 0.00 | 1018.6 | |
| 20260831122405 | 96 | 0.0 | 1.0 | 0.00 | 0.00 | 0.00 | 1018.7 | ||
| 20260831121505 | 96 | 0.0 | 2.0 | 0.00 | 0.00 | 0.00 | 1018.8 | ||
| 20260831120605 | 96 | 0.0 | 2.0 | 0.00 | 0.00 | 0.00 | 1018.8 | ||
| 20260831115703 | 96 | 0.0 | 1.0 | 0.00 | 0.00 | 0.00 | 1019.0 | ||
| 20260831114802 | 95 | 135 | 1.0 | 2.0 | 0.00 | 0.00 | 0.00 | 1019.0 | |
| 20260831113904 | 96 | 158 | 0.0 | 4.0 | 0.00 | 0.00 | 0.00 | 1019.1 | |
| 20260831112055 | 97 | 135 | 1.0 | 5.0 | 0.00 | 0.00 | 0.00 | 1019.0 | |
| 20260831111235 | 97 | 135 | 1.0 | 3.0 | 0.00 | 0.00 | 0.00 | 1019.0 | |
| 20260831110254 | 98 | 0.0 | 3.0 | 0.00 | 0.00 | 0.00 | 1019.4 | ||
| 20260831105353 | 98 | 0.0 | 2.0 | 0.00 | 0.00 | 0.00 | 1019.5 | ||
| 20260831104514 | 97 | 113 | 1.0 | 2.0 | 0.00 | 0.00 | 0.00 | 1019.5 | |
| 20260831103552 | 97 | 0.0 | 1.0 | 0.00 | 0.00 | 0.00 | 1019.5 | ||
| 20260831102651 | 96 | 0.0 | 2.0 | 0.00 | 0.00 | 0.00 | 1019.5 | ||
| 20260831101751 | 96 | 0.0 | 1.0 | 0.00 | 0.00 | 0.00 | 1019.6 | ||
| 20260831100850 | 96 | 0.0 | 2.0 | 0.00 | 0.00 | 0.00 | 1019.6 | ||
| 20260831095043 | 97 | 0.0 | 2.0 | 0.00 | 0.00 | 0.00 | 1019.7 | ||
| 20260831094142 | 96 | 0.0 | 0.0 | 0.00 | 0.00 | 0.00 | 1019.7 | ||
| 20260831093242 | 96 | 158 | 2.0 | 3.0 | 0.00 | 0.00 | 0.00 | 1019.9 | |
| 20260831092332 | 96 | 0.0 | 2.0 | 0.00 | 0.00 | 0.00 | 1019.9 | ||
| 20260831091432 | 95 | 0.0 | 3.0 | 0.00 | 0.00 | 0.00 | 1020.0 | ||
| 20260831090531 | 95 | 135 | 1.0 | 2.0 | 0.00 | 0.00 | 0.00 | 1020.0 | |
| 20260831085632 | 95 | 0.0 | 2.0 | 0.00 | 0.00 | 0.00 | 1020.2 | ||
| 20260831084729 | 94 | 0.0 | 0.0 | 0.00 | 0.00 | 0.00 | 10 | 1020.2 | |
| 20260831083829 | 93 | 0.0 | 2.0 | 0.00 | 0.00 | 0.00 | 12 | 1020.3 | |
| 20260831082048 | 91 | 0.0 | 2.0 | 0.00 | 0.00 | 0.00 | 14 | 1020.5 | |
| 20260831081149 | 91 | 0.0 | 4.0 | 0.00 | 0.00 | 0.00 | 16 | 1020.4 | |
| 20260831080226 | 89 | 0.0 | 1.0 | 0.00 | 0.00 | 0.00 | 19 | 1020.4 | |
| 20260831075327 | 87 | 0.0 | 1.0 | 0.00 | 0.00 | 0.00 | 23 | 1020.4 | |
| 20260831074440 | 86 | 0.0 | 2.0 | 0.00 | 0.00 | 0.00 | 24 | 1020.5 | |
| 20260831073603 | 85 | 0.0 | 1.0 | 0.00 | 0.00 | 0.00 | 28 | 1020.3 | |
| 20260831072619 | 83 | 0.0 | 0.0 | 0.00 | 0.00 | 0.00 | 32 | 1020.4 | |
| 20260831071719 | 82 | 0.0 | 0.0 | 0.00 | 0.00 | 0.00 | 31 | 1020.4 | |
| 20260831070837 | 80 | 0.0 | 2.0 | 0.00 | 0.00 | 0.00 | 38 | 1020.3 | |
| 20260831065017 | 79 | 0.0 | 2.0 | 0.00 | 0.00 | 0.00 | 39 | 1020.5 | |
| 20260831064116 | 80 | 0.0 | 2.0 | 0.00 | 0.00 | 0.00 | 37 | 1020.5 | |
| 20260831063215 | 80 | 0.0 | 1.0 | 0.00 | 0.00 | 0.00 | 39 | 1020.6 | |
| 20260831062316 | 79 | 0.0 | 1.0 | 0.00 | 0.00 | 0.00 | 42 | 1020.6 | |
| 20260831061414 | 78 | 0.0 | 1.0 | 0.00 | 0.00 | 0.00 | 44 | 1020.6 | |
| 20260831060530 | 77 | 0.0 | 1.0 | 0.00 | 0.00 | 0.00 | 48 | 1020.5 | |
| 20260831055607 | 75 | 0.0 | 0.0 | 0.00 | 0.00 | 0.00 | 53 | 1020.5 | |
| 20260831054708 | 73 | 0.0 | 0.0 | 0.00 | 0.00 | 0.00 | 59 | 1020.6 | |
| 20260831053808 | 71 | 0.0 | 1.0 | 0.00 | 0.00 | 0.00 | 64 | 1020.7 | |
| 20260831052905 | 67 | 0.0 | 0.0 | 0.00 | 0.00 | 0.00 | 70 | 1020.8 | |
| 20260831051104 | 65 | 0.0 | 0.0 | 0.00 | 0.00 | 0.00 | 74 | 1020.7 | |
| 20260831050204 | 64 | 0.0 | 0.0 | 0.00 | 0.00 | 0.00 | 76 | 1020.6 | |
| 20260831045306 | 63 | 0.0 | 0.0 | 0.00 | 0.00 | 0.00 | 78 | 1020.6 | |
| 20260831044423 | 62 | 0.0 | 0.0 | 0.00 | 0.00 | 0.00 | 79 | 1020.6 | |
| 20260831043502 | 61 | 0.0 | 0.0 | 0.00 | 0.00 | 0.00 | 79 | 1020.6 | |
| 20260831042616 | 61 | 0.0 | 0.0 | 0.00 | 0.00 | 0.00 | 79 | 1020.5 | |
| 20260831041655 | 60 | 0.0 | 0.0 | 0.00 | 0.00 | 0.00 | 79 | 1020.4 | |
| 20260831040755 | 60 | 0.0 | 0.0 | 0.00 | 0.00 | 0.00 | 78 | 1020.4 | |
| 20260831035854 | 60 | 0.0 | 0.0 | 0.00 | 0.00 | 0.00 | 77 | 1020.3 | |
| 20260831034116 | 60 | 0.0 | 0.0 | 0.00 | 0.00 | 0.00 | 77 | 1020.4 | |
| 20260831033152 | 60 | 0.0 | 0.0 | 0.00 | 0.00 | 0.00 | 76 | 1020.4 | |
| 20260831032252 | 60 | 0.0 | 0.0 | 0.00 | 0.00 | 0.00 | 76 | 1020.3 | |
| 20260831031351 | 60 | 0.0 | 0.0 | 0.00 | 0.00 | 0.00 | 75 | 1020.3 | |
| 20260831030450 | 61 | 0.0 | 0.0 | 0.00 | 0.00 | 0.00 | 75 | 1020.3 | |
| 20260831025551 | 61 | 0.0 | 0.0 | 0.00 | 0.00 | 0.00 | 75 | 1020.3 | |
| 20260831024643 | 61 | 0.0 | 0.0 | 0.00 | 0.00 | 0.00 | 75 | 1020.3 | |
| 20260831023802 | 61 | 0.0 | 0.0 | 0.00 | 0.00 | 0.00 | 74 | 1020.3 | |
| 20260831022842 | 62 | 0.0 | 0.0 | 0.00 | 0.00 | 0.00 | 73 | 1020.2 | |
| 20260831021032 | 62 | 0.0 | 0.0 | 0.00 | 0.00 | 0.00 | 73 | 1020.3 | |
| 20260831020131 | 62 | 0.0 | 0.0 | 0.00 | 0.00 | 0.00 | 72 | 1020.2 | |
| 20260831015231 | 62 | 0.0 | 0.0 | 0.00 | 0.00 | 0.00 | 71 | 1020.3 | |
| 20260831014329 | 62 | 0.0 | 0.0 | 0.00 | 0.00 | 0.00 | 69 | 1020.3 | |
| 20260831013429 | 63 | 0.0 | 0.0 | 0.00 | 0.00 | 0.00 | 68 | 1020.2 | |
| 20260831012529 | 63 | 0.0 | 0.0 | 0.00 | 0.00 | 0.00 | 67 | 1020.2 | |
| 20260831011627 | 64 | 0.0 | 0.0 | 0.00 | 0.00 | 0.00 | 67 | 1020.3 | |
| 20260831010727 | 64 | 0.0 | 0.0 | 0.00 | 0.00 | 0.00 | 66 | 1020.3 | |
| 20260831005848 | 64 | 0.0 | 0.0 | 0.00 | 0.00 | 0.00 | 65 | 1020.2 | |
| 20260831004020 | 64 | 0.0 | 0.0 | 0.00 | 0.00 | 0.00 | 65 | 1020.2 | |
| 20260831003119 | 64 | 0.0 | 0.0 | 0.00 | 0.00 | 0.00 | 65 | 1020.3 | |
| 20260831002219 | 64 | 0.0 | 0.0 | 0.00 | 0.00 | 0.00 | 64 | 1020.2 | |
| 20260831001318 | 64 | 0.0 | 0.0 | 0.00 | 0.00 | 0.00 | 63 | 1020.2 | |
| 20260831000418 | 64 | 0.0 | 0.0 | 0.00 | 0.00 | 0.00 | 63 | 1020.2 | |
| 20260830235517 | 65 | 0.0 | 0.0 | 0.00 | 0.00 | 0.00 | 62 | 1020.4 | |
| 20260830234616 | 65 | 0.0 | 0.0 | 0.00 | 0.00 | 0.00 | 61 | 1020.5 | |
| 20260830233715 | 65 | 0.0 | 0.0 | 0.00 | 0.00 | 0.00 | 60 | 1020.3 | |
| 20260830232835 | 65 | 0.0 | 0.0 | 0.00 | 0.00 | 0.00 | 59 | 1020.5 | |
| 20260830231914 | 66 | 0.0 | 0.0 | 0.00 | 0.00 | 0.00 | 57 | 1020.3 | |
| 20260830230108 | 66 | 0.0 | 0.0 | 0.00 | 0.00 | 0.00 | 56 | 1020.4 | |
| 20260830225207 | 67 | 0.0 | 0.0 | 0.00 | 0.00 | 0.00 | 55 | 1020.2 | |
| 20260830224306 | 67 | 0.0 | 0.0 | 0.00 | 0.00 | 0.00 | 54 | 1020.3 | |
| 20260830223426 | 67 | 0.0 | 0.0 | 0.00 | 0.00 | 0.00 | 53 | 1020.2 | |
| 20260830222505 | 68 | 0.0 | 0.0 | 0.00 | 0.00 | 0.00 | 52 | 1020.3 | |
| 20260830221605 | 68 | 0.0 | 0.0 | 0.00 | 0.00 | 0.00 | 51 | 1020.3 | |
| 20260830220704 | 69 | 0.0 | 0.0 | 0.00 | 0.00 | 0.00 | 49 | 1020.4 | |
| 20260830215825 | 69 | 0.0 | 0.0 | 0.00 | 0.00 | 0.00 | 48 | 1020.3 | |
| 20260830214923 | 70 | 0.0 | 0.0 | 0.00 | 0.00 | 0.00 | 45 | 1020.4 | |
| 20260830213102 | 71 | 0.0 | 0.0 | 0.00 | 0.00 | 0.00 | 44 | 1020.1 | |
| 20260830212158 | 71 | 0.0 | 0.0 | 0.00 | 0.00 | 0.00 | 43 | 1020.2 | |
| 20260830211256 | 71 | 0.0 | 1.0 | 0.00 | 0.00 | 0.00 | 43 | 1020.3 | |
| 20260830210356 | 72 | 0.0 | 0.0 | 0.00 | 0.00 | 0.00 | 41 | 1020.3 | |
| 20260830205534 | 73 | 0.0 | 0.0 | 0.00 | 0.00 | 0.00 | 39 | 1020.4 | |
| 20260830204613 | 73 | 0.0 | 0.0 | 0.00 | 0.00 | 0.00 | 38 | 1020.2 | |
| 20260830203653 | 73 | 0.0 | 2.0 | 0.00 | 0.00 | 0.00 | 37 | 1020.2 | |
| 20260830202752 | 74 | 0.0 | 1.0 | 0.00 | 0.00 | 0.00 | 37 | 1020.3 | |
| 20260830201851 | 74 | 135 | 1.0 | 3.0 | 0.00 | 0.00 | 0.00 | 37 | 1020.2 |
| 20260830200052 | 74 | 0.0 | 2.0 | 0.00 | 0.00 | 0.00 | 36 | 1020.3 | |
| 20260830195150 | 75 | 0.0 | 0.0 | 0.00 | 0.00 | 0.00 | 35 | 1020.3 | |
| 20260830194305 | 75 | 0.0 | 0.0 | 0.00 | 0.00 | 0.00 | 33 | 1020.1 | |
| 20260830193344 | 76 | 0.0 | 1.0 | 0.00 | 0.00 | 0.00 | 33 | 1020.1 | |
| 20260830192503 | 76 | 158 | 1.0 | 2.0 | 0.00 | 0.00 | 0.00 | 33 | 1020.0 |
| 20260830191532 | 76 | 0.0 | 1.0 | 0.00 | 0.00 | 0.00 | 33 | 1020.0 | |
| 20260830190631 | 77 | 0.0 | 2.0 | 0.00 | 0.00 | 0.00 | 33 | 1020.0 | |
| 20260830185731 | 77 | 0.0 | 3.0 | 0.00 | 0.00 | 0.00 | 33 | 1020.0 | |
| 20260830184830 | 77 | 0.0 | 2.0 | 0.00 | 0.00 | 0.00 | 33 | 1020.0 | |
| 20260830183029 | 77 | 0.0 | 0.0 | 0.00 | 0.00 | 0.00 | 34 | 1020.1 | |
| 20260830182129 | 77 | 0.0 | 0.0 | 0.00 | 0.00 | 0.00 | 33 | 1019.9 | |
| 20260830181228 | 76 | 0.0 | 1.0 | 0.00 | 0.00 | 0.00 | 34 | 1019.9 | |
| 20260830180327 | 76 | 0.0 | 2.0 | 0.00 | 0.00 | 0.00 | 34 | 1019.7 | |
| 20260830175426 | 76 | 0.0 | 0.0 | 0.00 | 0.00 | 0.00 | 34 | 1019.6 | |
| 20260830174527 | 77 | 0.0 | 0.0 | 0.00 | 0.00 | 0.00 | 32 | 1019.5 | |
| 20260830173640 | 78 | 0.0 | 0.0 | 0.00 | 0.00 | 0.00 | 31 | 1019.3 | |
| 20260830172719 | 78 | 0.0 | 0.0 | 0.00 | 0.00 | 0.00 | 30 | 1019.2 | |
| 20260830171840 | 79 | 0.0 | 0.0 | 0.00 | 0.00 | 0.00 | 29 | 1019.0 | |
| 20260830170018 | 80 | 0.0 | 0.0 | 0.00 | 0.00 | 0.00 | 28 | 1018.9 | |
| 20260830165117 | 81 | 0.0 | 0.0 | 0.00 | 0.00 | 0.00 | 27 | 1018.9 | |
| 20260830164216 | 81 | 0.0 | 1.0 | 0.00 | 0.00 | 0.00 | 27 | 1018.9 | |
| 20260830163317 | 82 | 0.0 | 1.0 | 0.00 | 0.00 | 0.00 | 27 | 1018.8 | |
| 20260830162417 | 82 | 0.0 | 0.0 | 0.00 | 0.00 | 0.00 | 28 | 1018.8 | |
| 20260830161514 | 82 | 0.0 | 0.0 | 0.00 | 0.00 | 0.00 | 28 | 1018.8 | |
| 20260830160614 | 82 | 135 | 1.0 | 4.0 | 0.00 | 0.00 | 0.00 | 28 | 1018.8 |
| 20260830155708 | 82 | 0.0 | 0.0 | 0.00 | 0.00 | 0.00 | 28 | 1018.7 | |
| 20260830154807 | 83 | 0.0 | 0.0 | 0.00 | 0.00 | 0.00 | 26 | 1018.7 | |
| 20260830153908 | 84 | 0.0 | 0.0 | 0.00 | 0.00 | 0.00 | 22 | 1018.8 | |
| 20260830152106 | 85 | 0.0 | 1.0 | 0.00 | 0.00 | 0.00 | 21 | 1018.8 |